Theta_e
311 312 316 319 333 324 343 349 351 351 354 351 350 346 346 344 349 349 347 344 343 343 342 343 345 345 343 338 338 336 334 342 341 342 343 341 342 341 343 344 340 336 339 342
312 313 313 317 319 321 326 346 348 348 354 349 350 349 345 344 345 348 348 343 343 342 340 340 345 344 343 339 339 334 339 344 344 345 344 342 341 343 344 343 341 340 343 341
313 315 313 316 317 342 342 342 347 346 352 350 349 346 347 345 343 347 347 345 343 344 341 339 340 343 342 341 341 335 341 346 344 345 344 343 344 343 345 344 345 345 347 346
313 314 315 314 316 333 342 341 345 353 344 342 347 347 347 345 344 347 348 346 344 343 341 339 339 339 342 343 343 339 340 346 345 346 344 343 343 345 342 342 344 346 348 347
320 320 316 317 317 336 337 344 343 346 341 344 351 348 342 345 347 345 344 345 344 344 341 341 340 339 340 343 344 343 344 346 345 347 345 345 343 346 345 341 344 347 347 346
318 318 321 321 329 335 333 334 334 331 339 342 340 349 344 347 346 344 342 340 341 345 344 341 341 340 341 343 344 345 345 345 343 347 346 345 345 346 344 346 348 348 348 347
319 321 319 319 319 319 327 324 332 339 344 343 333 349 342 339 345 344 344 341 339 341 345 343 342 341 342 343 344 345 345 345 343 344 345 346 344 345 344 346 345 347 348 348
323 324 321 319 319 321 329 318 320 326 333 333 335 343 336 342 342 342 340 341 341 341 344 344 343 343 342 344 344 344 344 345 344 344 344 346 345 345 346 346 346 346 347 347
322 323 322 323 318 317 318 320 317 327 332 334 334 336 335 345 345 342 343 341 342 341 343 345 344 344 343 344 344 344 345 345 344 344 345 346 346 346 345 344 346 347 347 347
320 325 322 323 320 320 321 320 328 325 337 340 336 339 340 343 342 346 340 342 340 340 342 344 344 344 344 344 344 345 345 345 344 344 345 346 346 346 346 345 345 346 345 347
318 320 323 322 322 323 322 328 326 326 327 332 334 331 331 337 339 340 341 341 340 340 342 342 343 344 344 344 346 346 346 345 344 344 345 346 346 346 346 345 345 346 346 346
320 315 320 324 319 316 320 326 325 326 333 329 328 330 329 339 338 341 342 341 340 339 340 341 342 343 343 344 344 346 347 346 346 344 345 345 345 344 345 345 345 345 346 346
320 317 318 319 318 318 319 323 321 321 326 335 332 329 333 336 338 338 341 341 337 337 343 340 340 341 341 342 343 344 346 347 347 346 346 346 346 346 344 344 345 345 346 347
319 312 316 317 319 318 321 320 328 322 329 329 329 328 330 337 337 337 342 339 331 335 338 342 342 340 340 341 342 344 345 345 346 346 346 347 347 345 345 344 343 345 346 349
312 314 314 314 316 319 320 320 320 322 319 324 321 328 326 334 335 334 338 337 332 335 336 337 338 339 343 344 343 343 344 346 344 343 346 347 347 346 346 345 343 345 347 347
310 311 318 322 321 319 322 326 323 327 324 327 330 327 326 333 334 334 340 336 335 340 340 343 340 340 341 342 344 343 344 346 348 344 347 347 347 347 347 346 346 346 347 347
315 316 317 321 318 319 321 327 327 334 336 333 334 330 340 337 336 336 335 333 332 342 344 344 342 340 340 341 343 344 345 343 348 349 348 347 348 348 348 348 347 347 347 347
315 315 314 318 317 322 318 325 333 337 339 338 337 338 338 334 333 332 329 330 330 337 341 341 339 338 339 341 344 344 345 342 347 350 349 349 348 348 348 348 348 347 348 348
311 313 316 318 317 318 321 327 333 335 337 337 337 336 335 337 332 329 331 327 328 330 335 337 338 339 339 341 344 345 343 344 348 349 349 349 349 349 348 348 348 348 348 348
312 311 317 316 320 322 319 323 325 329 334 333 336 336 335 334 331 329 332 335 336 336 336 337 337 338 339 343 345 345 343 343 344 344 345 344 344 346 346 347 348 348 348 348
317 316 317 320 320 320 318 325 326 330 328 330 333 331 332 333 328 325 335 337 336 336 336 337 337 337 339 342 343 342 343 341 342 342 341 341 341 340 339 341 344 346 346 346
320 319 318 319 323 324 319 326 329 325 322 330 331 329 328 329 327 326 329 332 334 333 333 335 336 337 337 341 342 342 343 343 343 343 343 342 340 341 340 339 342 343 341 338
322 318 320 320 321 317 321 324 321 320 324 329 329 327 328 329 329 329 331 331 331 331 332 334 336 337 338 341 341 342 342 343 342 342 342 340 341 339 340 340 340 338 336 333
324 316 320 321 320 321 322 323 322 321 324 324 327 327 329 330 328 329 330 329 328 330 332 333 335 335 336 341 340 340 341 342 342 341 338 336 336 335 336 334 334 334 331 330
322 320 319 319 321 324 326 326 324 323 327 330 331 331 332 330 330 330 329 328 329 330 331 333 335 335 335 339 339 340 339 340 338 335 335 333 331 331 330 330 329 330 330 332
322 321 322 323 321 322 323 327 327 329 330 329 330 329 329 330 330 329 328 328 328 329 330 331 334 334 335 337 338 338 336 336 334 331 330 329 327 327 327 326 326 329 331 332
Wind_Speed
4 4 5 10 6 2 4 3 2 2 6 3 5 5 7 6 4 5 3 8 9 14 10 17 19 22 23 20 18 20 22 17 15 14 13 11 11 11 8 6 6 6 2 5
6 4 8 3 4 2 2 1 3 1 4 2 2 4 4 7 3 5 4 6 11 4 6 13 17 22 27 25 22 22 22 19 18 16 13 14 12 7 7 5 8 7 4 3
6 4 6 7 4 5 3 4 3 0 4 1 0 1 5 6 5 9 6 6 4 11 12 8 15 22 25 28 27 27 26 21 21 17 15 11 11 6 9 7 7 6 5 5
5 4 6 5 5 6 2 7 6 6 3 0 3 3 2 4 5 12 16 11 8 8 10 8 12 17 25 32 30 29 28 24 23 20 18 17 16 9 11 11 9 6 6 5
7 4 5 3 6 7 4 8 6 3 4 1 1 3 4 1 5 10 12 16 12 10 12 14 16 25 31 27 34 32 29 27 27 24 21 18 16 12 9 12 11 8 8 8
6 3 4 7 5 6 10 8 8 5 3 4 3 2 4 3 5 4 13 16 17 14 12 14 21 22 25 26 28 33 30 30 28 26 23 21 17 14 12 14 13 12 10 10
5 1 4 4 7 4 6 6 4 3 3 5 4 2 7 5 5 7 8 14 14 14 12 11 12 18 23 24 27 31 32 32 29 27 24 21 19 16 17 13 17 15 13 12
3 6 1 1 6 8 7 7 6 5 4 3 4 4 5 5 4 8 8 10 14 15 14 13 17 23 26 27 30 30 32 35 31 27 24 22 20 18 17 16 15 18 15 13
4 4 3 2 3 7 5 3 4 7 3 2 2 6 5 3 5 5 7 2 8 12 15 16 18 23 26 25 30 36 33 35 34 32 27 25 23 21 20 18 15 19 17 15
5 2 3 4 3 6 4 5 3 3 3 2 4 5 4 5 8 5 4 7 7 8 11 12 16 20 23 27 30 33 35 37 36 34 31 28 26 24 23 21 18 16 17 16
4 3 5 3 4 1 3 2 7 5 3 5 1 6 6 4 4 5 4 5 6 6 10 11 14 20 23 22 22 25 32 33 35 36 35 32 30 28 25 24 22 20 18 18
1 5 2 1 4 2 1 3 5 5 4 1 3 5 2 6 6 5 6 4 4 5 6 7 13 16 18 24 24 22 25 28 33 36 36 35 33 31 30 27 24 22 20 20
6 2 3 6 6 5 4 3 4 5 3 5 5 5 1 3 4 4 5 5 5 6 1 6 7 13 17 21 28 30 29 32 34 31 31 34 36 33 33 31 29 25 21 21
8 3 5 7 6 3 0 2 3 4 3 5 5 4 5 6 6 6 5 4 1 4 4 1 2 6 14 23 29 30 30 37 33 30 28 33 37 36 33 31 30 28 25 22
5 4 3 4 4 2 3 2 3 5 5 6 4 7 6 8 8 5 4 3 4 5 3 3 3 4 6 6 15 23 23 29 36 29 30 37 39 38 33 31 30 29 27 27
3 2 3 4 2 4 1 3 4 3 2 6 3 6 6 4 2 5 6 4 2 3 5 3 1 1 5 7 10 16 28 28 33 36 32 36 36 36 35 33 31 31 30 28
4 6 3 4 2 3 4 4 3 2 1 2 4 4 2 2 5 4 1 4 5 4 3 4 5 6 9 10 10 14 20 27 31 34 31 27 33 34 34 35 32 32 32 31
7 6 2 3 3 2 6 3 2 5 1 2 3 2 3 0 4 5 5 5 5 4 4 5 7 14 16 14 14 13 14 20 26 27 27 26 28 30 29 29 30 32 31 31
3 5 3 5 3 4 1 4 5 3 3 2 3 4 2 2 3 3 3 5 5 6 6 6 8 11 17 15 14 11 11 15 20 24 26 23 26 27 25 24 28 29 29 30
6 6 5 3 4 6 7 4 4 4 2 6 4 3 3 3 2 4 4 2 3 4 5 7 10 12 15 14 15 12 13 14 16 19 19 17 13 11 6 10 21 24 26 27
3 3 5 3 3 6 6 5 5 5 7 6 7 6 6 4 6 4 3 3 3 4 5 8 12 12 14 14 13 13 17 16 15 17 17 12 7 4 4 3 6 11 15 17
7 7 4 3 3 5 8 6 8 8 3 8 7 6 7 7 3 3 5 5 5 3 8 10 13 14 16 15 10 9 16 20 19 20 13 9 6 5 8 7 9 6 14 18
3 6 6 8 7 5 6 4 5 7 7 6 6 5 5 5 5 5 4 5 4 4 7 10 13 13 17 15 8 8 15 19 16 15 13 10 8 10 9 13 16 18 20 24
1 3 4 4 4 5 5 2 5 7 8 6 3 4 6 5 3 5 5 4 3 4 8 10 12 13 15 13 8 7 14 20 16 14 12 10 11 11 14 16 21 27 27 25
4 6 6 2 3 1 2 6 6 6 5 5 4 5 4 4 4 3 4 5 6 6 6 7 10 13 14 7 6 10 15 22 21 17 18 17 16 17 18 18 13 19 24 28
4 7 5 5 9 6 6 7 6 8 7 7 7 3 2 2 1 2 4 7 8 6 7 7 10 11 9 5 10 12 16 20 24 21 17 17 17 20 23 23 19 18 19 21
Wind_Direction
5 88 189 213 189 160 136 188 218 149 176 132 200 164 196 151 156 151 213 192 192 212 212 223 213 216 215 215 215 209 206 202 194 193 185 178 190 200 222 222 209 185 164 178
22 254 222 171 192 256 287 167 194 45 149 61 147 227 199 173 175 183 190 202 200 213 194 216 203 201 210 215 215 206 205 204 197 195 195 192 201 211 199 196 201 218 211 200
165 236 144 150 175 170 207 200 142 102 123 195 142 289 147 226 161 182 197 239 245 200 201 202 196 196 204 215 213 211 212 211 208 204 194 179 177 160 186 188 197 219 218 213
230 259 182 173 194 161 206 206 116 121 89 69 50 293 191 229 190 198 191 207 214 199 200 206 201 197 202 215 217 217 219 214 210 203 196 188 194 185 202 208 205 208 221 226
254 160 139 149 220 155 232 104 114 122 93 116 342 65 272 126 187 214 211 203 202 201 196 197 202 209 213 209 215 219 220 220 212 208 202 203 193 202 196 195 209 215 218 225
247 276 177 188 52 110 120 81 47 54 46 6 322 113 278 219 208 206 208 212 204 193 194 200 207 209 212 206 209 217 218 217 214 209 208 207 206 206 196 198 206 214 221 222
330 285 310 113 78 54 78 60 27 17 13 225 344 38 247 248 260 233 250 217 206 190 191 193 181 190 199 199 205 213 217 217 215 217 214 212 212 213 213 219 215 207 213 221
98 331 21 138 161 178 172 157 150 180 188 244 30 235 262 213 277 300 277 206 194 197 190 191 190 190 198 199 205 209 217 220 216 217 218 218 217 217 217 224 223 214 216 222
139 272 298 345 129 125 198 178 168 103 2 69 240 294 301 252 280 342 346 108 206 207 194 194 189 191 194 200 204 211 215 216 218 217 219 218 223 224 226 230 235 227 227 236
191 54 39 311 87 41 123 140 80 14 128 238 298 283 242 250 260 235 257 237 219 203 199 198 193 191 195 202 208 212 216 217 220 223 222 222 223 228 230 232 234 233 233 228
128 99 299 28 26 199 54 60 55 108 100 150 189 273 212 191 176 216 272 297 294 259 216 197 191 194 199 198 203 210 216 220 223 226 227 228 227 228 232 236 239 239 238 232
139 125 124 172 318 286 173 135 135 122 210 100 139 274 204 169 177 184 212 256 299 301 247 201 195 192 188 197 208 213 219 217 227 232 232 234 235 231 231 236 240 241 248 235
188 34 50 1 353 349 53 78 99 103 95 185 138 261 73 168 216 247 223 236 303 325 151 192 189 199 202 208 204 213 216 226 229 230 233 238 239 237 233 234 238 242 243 237
87 96 148 189 208 166 255 47 155 104 119 167 220 265 277 237 211 189 204 198 299 315 295 182 265 254 224 211 210 213 215 221 227 230 237 235 237 235 236 235 235 238 236 237
103 133 155 194 217 216 183 232 196 187 188 159 243 210 262 246 227 194 174 177 32 345 354 1 317 309 306 275 237 231 229 214 219 226 231 235 236 236 233 235 233 234 234 234
28 154 148 183 265 263 259 148 217 230 128 289 211 258 222 304 312 30 96 146 220 323 318 312 120 326 304 299 285 251 240 226 215 221 216 222 226 231 231 232 234 237 235 237
113 134 113 220 5 8 343 245 191 161 175 180 185 250 49 341 315 332 161 198 181 163 263 284 308 317 304 300 299 277 273 237 217 219 224 216 218 227 231 232 230 234 237 241
133 109 90 157 59 188 245 289 238 140 202 257 262 218 193 252 302 281 240 204 183 204 252 262 298 302 306 310 309 298 288 250 219 216 223 222 223 227 233 235 233 235 235 239
70 123 91 135 173 278 270 243 185 154 265 210 196 178 189 308 295 360 3 222 241 202 241 260 272 285 295 297 299 281 267 244 216 205 211 215 225 225 226 233 236 239 239 241
71 68 109 142 148 200 233 224 161 112 281 226 191 215 191 82 17 260 278 169 202 204 232 271 295 296 292 298 303 250 221 195 185 185 173 162 157 156 166 235 241 239 240 241
93 41 146 151 175 282 236 191 135 112 233 183 184 212 161 189 203 181 184 239 245 247 289 304 303 301 296 294 296 237 209 194 183 165 159 151 160 156 91 326 259 246 236 217
153 144 172 99 102 257 158 102 162 208 224 179 188 199 196 230 297 219 210 221 229 281 315 305 306 314 307 301 288 254 210 208 198 194 196 196 197 207 230 264 264 200 181 168
152 176 174 172 207 235 210 191 197 166 166 198 189 210 199 241 242 211 221 209 228 282 293 294 295 305 305 304 268 237 225 203 194 191 192 216 223 220 195 203 198 169 170 154
288 153 146 118 236 228 208 207 182 184 193 186 184 170 172 243 233 232 239 216 199 242 286 305 306 308 302 298 252 229 206 197 180 174 175 172 159 152 166 171 170 164 154 148
203 136 156 263 298 23 244 220 200 188 157 131 136 164 204 209 268 202 217 240 232 232 263 280 289 294 294 278 225 171 168 170 154 155 151 145 137 136 136 136 133 137 144 148
195 176 157 207 208 166 219 199 174 170 177 177 161 177 192 173 287 192 216 227 251 268 286 276 276 286 285 244 175 158 163 155 147 136 143 147 136 136 126 119 109 119 128 136